Regional Weather Roundup
Issued by NWS

Home | Current Version | Previous Version | Graphics & Text | Print | Product List | Glossary On
Versions: 1 2 3 4 5 6 7 8 9 10 11 12 13 14 15 16 17 18 19 20 21 22 23 24 25 26 27 28 29 30 31 32 33 34 35 36 37 38 39 40 41 42 43 44 45 46 47 48 49 50
000
ASUS43 KLMK 210310
RWRKY
KENTUCKY REGIONAL WEATHER ROUNDUP
NATIONAL WEATHER SERVICE LOUISVILLE KY
1100 PM EDT MON OCT 20 2014

NOTE "FAIR" INDICATES FEW OR NO CLOUDS BELOW 12,000 FEET
WITH NO SIGNIFICANT WEATHER AND/OR OBSTRUCTIONS TO VISIBILITY.

KYZ001>023-026-027-061>063-070>075-210400-
WESTERN AND SOUTH CENTRAL KENTUCKY

CITY           SKY/WX    TMP DP  RH WIND       PRES   REMARKS
PADUCAH        CLEAR     58  54  86 W3        30.00R
HENDERSON      CLEAR     55  43  62 W3        29.99R
OWENSBORO      CLEAR     58  51  77 NW7       29.98R
HOPKINSVILLE   CLEAR     55  54  98 SW7       30.00R
BOWLING GREEN  MOCLDY    59  50  72 SW6       29.99R
GLASGOW        CLOUDY    56  50  80 CALM      29.98S
$$

KYZ024-025-028>034-038-045-046-053-210400-
NORTH CENTRAL KENTUCKY

CITY           SKY/WX    TMP DP  RH WIND       PRES   REMARKS
LOUISVILLE/SDF PTCLDY    59  53  80 SW13      29.94R
LOUISVILLE/LOU PTCLDY    55  54  96 CALM      29.94R FOG
FORT KNOX      PTCLDY    57  52  83 SW5       29.95R
$$

KYZ035>037-039>044-047>052-055>060-089>105-210400-
NORTHEAST KENTUCKY

CITY           SKY/WX    TMP DP  RH WIND       PRES   REMARKS
LEXINGTON      PTCLDY    57  50  77 SW12      29.95R
COVINGTON      PTCLDY    56  50  80 SW5       29.91R
FRANKFORT      MOCLDY    56  51  84 SW7       29.93S
$$

KYZ054-064>069-076>088-106>120-210400-
SOUTHEAST KENTUCKY

CITY           SKY/WX    TMP DP  RH WIND       PRES   REMARKS
JACKSON        CLEAR     52  47  83 CALM      29.97S
LONDON         CLEAR     54  47  77 SW3       29.99F
SOMERSET       PTCLDY    46  46 100 CALM      30.01R
MIDDLESBORO    CLEAR     48  47  99 CALM      30.01S
MONTICELLO     CLEAR     44  43  97 CALM      30.01F
$$




USA.gov is the U.S. government's official web portal to all federal, state and local government web resources and services.